Temp
-3 -3 -3 -3 -3 -3 -3 -3 -3 -3 -3 -3 -3 -3 -3 -3 -3 -4 -4 -3 -3 -3 -4 -4 -5 -5 -5 -6 -5 -5 -5 -5 -5 -5 -5 -5 -5 -6 -6 -6 -6 -6 -6 -6 -6
-3 -3 -3 -3 -3 -3 -3 -3 -3 -3 -3 -3 -3 -3 -3 -3 -3 -3 -3 -4 -4 -4 -5 -5 -5 -5 -4 -5 -4 -4 -5 -5 -6 -5 -5 -5 -6 -6 -6 -6 -6 -6 -6 -7 -6
-4 -4 -3 -3 -3 -3 -3 -3 -3 -3 -3 -3 -3 -3 -3 -3 -3 -3 -3 -4 -3 -4 -5 -4 -4 -5 -5 -6 -6 -5 -5 -7 -6 -6 -5 -5 -7 -6 -7 -6 -6 -6 -5 -6 -7
-4 -4 -3 -3 -3 -3 -3 -3 -3 -3 -3 -3 -3 -3 -3 -3 -3 -3 -3 -3 -3 -4 -3 -3 -4 -5 -5 -6 -6 -7 -6 -6 -7 -5 -6 -5 -6 -8 -8 -6 -6 -6 -5 -6 -7
-4 -4 -4 -4 -3 -3 -3 -3 -3 -3 -3 -3 -3 -3 -3 -3 -3 -3 -3 -3 -3 -3 -4 -4 -4 -5 -6 -6 -6 -7 -6 -5 -7 -7 -6 -6 -7 -7 -7 -7 -6 -6 -6 -6 -6
-4 -4 -4 -4 -4 -4 -4 -3 -3 -3 -3 -3 -3 -3 -3 -3 -3 -3 -3 -3 -3 -3 -3 -4 -4 -6 -6 -6 -6 -7 -5 -4 -5 -7 -5 -6 -7 -7 -7 -8 -7 -7 -6 -6 -6
-4 -4 -4 -3 -4 -3 -3 -3 -3 -3 -3 -3 -3 -3 -3 -3 -4 -3 -3 -3 -3 -3 -4 -4 -5 -4 -5 -6 -5 -5 -5 -5 -3 -5 -7 -5 -6 -7 -7 -8 -8 -6 -7 -6 -6
-4 -4 -4 -3 -3 -3 -3 -3 -3 -3 -3 -3 -3 -4 -3 -3 -3 -3 -3 -3 -3 -3 -4 -4 -5 -5 -4 -6 -5 -5 -6 -5 -4 -4 -5 -5 -6 -6 -7 -8 -8 -7 -6 -6 -6
-4 -4 -4 -3 -3 -3 -3 -3 -3 -3 -3 -3 -3 -3 -3 -3 -3 -3 -4 -4 -3 -3 -3 -4 -3 -4 -5 -4 -5 -5 -6 -7 -5 -5 -5 -6 -7 -6 -6 -8 -8 -6 -6 -6 -6
-4 -4 -4 -4 -3 -4 -3 -2 -2 -2 -3 -3 -3 -3 -3 -3 -3 -4 -3 -4 -4 -3 -3 -3 -3 -3 -4 -3 -4 -5 -6 -7 -6 -6 -6 -7 -7 -6 -7 -8 -7 -6 -6 -6 -5
-4 -4 -4 -4 -4 -3 -3 -2 -2 -2 -2 -2 -3 -3 -3 -3 -3 -3 -3 -3 -3 -3 -3 -4 -3 -3 -3 -4 -5 -5 -6 -7 -7 -6 -5 -5 -6 -7 -7 -7 -7 -7 -5 -5 -5
-5 -5 -5 -4 -4 -3 -3 -3 -3 -2 -2 -2 -3 -2 -3 -2 -3 -3 -3 -3 -3 -4 -3 -3 -2 -4 -5 -5 -5 -5 -6 -7 -7 -6 -6 -6 -5 -6 -6 -7 -7 -7 -6 -5 -5
-5 -5 -5 -5 -4 -4 -3 -3 -3 -3 -2 -3 -3 -2 -3 -2 -3 -3 -3 -3 -3 -3 -3 -3 -3 -4 -4 -4 -5 -5 -5 -7 -7 -8 -6 -6 -5 -4 -6 -7 -6 -6 -5 -5 -5
-5 -5 -5 -5 -4 -4 -4 -4 -3 -2 -2 -2 -3 -3 -2 -3 -2 -4 -3 -3 -3 -3 -4 -3 -3 -3 -3 -4 -4 -5 -6 -7 -7 -8 -7 -7 -6 -5 -6 -6 -6 -5 -5 -6 -5
-5 -5 -5 -5 -5 -4 -4 -4 -4 -3 -3 -3 -2 -2 -3 -3 -3 -3 -3 -3 -3 -3 -3 -3 -4 -3 -3 -3 -4 -4 -7 -7 -7 -8 -8 -7 -6 -5 -6 -5 -6 -4 -4 -5 -5
-6 -5 -5 -5 -6 -5 -4 -4 -5 -4 -2 -3 -2 -2 -3 -3 -3 -3 -2 -3 -3 -3 -3 -3 -3 -3 -3 -4 -4 -5 -6 -7 -7 -8 -7 -7 -6 -5 -4 -5 -6 -6 -6 -5 -5
-6 -6 -7 -6 -5 -5 -6 -5 -5 -4 -4 -3 -3 -3 -3 -4 -3 -3 -2 -3 -2 -2 -2 -3 -3 -3 -3 -3 -3 -3 -5 -6 -6 -6 -3 -5 -5 -3 -5 -5 -5 -5 -7 -6 -5
-7 -7 -7 -6 -6 -6 -6 -6 -4 -4 -4 -4 -4 -4 -4 -4 -4 -4 -3 -3 -3 -3 -3 -3 -3 -3 -3 -3 -3 -3 -4 -4 -4 -4 -3 -5 -2 -2 -5 -6 -5 -7 -6 -6 -6
-6 -7 -7 -6 -6 -6 -6 -6 -5 -5 -4 -4 -5 -5 -5 -4 -4 -4 -4 -3 -4 -4 -4 -3 -3 -4 -3 -4 -4 -3 -3 -4 -4 -5 -4 -4 -2 -3 -5 -6 -5 -6 -6 -6 -5
-6 -6 -6 -6 -6 -6 -6 -6 -6 -5 -5 -5 -5 -5 -5 -5 -4 -4 -4 -4 -4 -4 -4 -4 -4 -4 -4 -4 -4 -4 -4 -4 -4 -4 -3 -2 -2 -2 -4 -5 -5 -4 -5 -5 -5
-8 -8 -6 -6 -6 -6 -6 -6 -6 -6 -6 -6 -6 -5 -5 -5 -5 -4 -5 -4 -4 -4 -4 -3 -3 -4 -5 -4 -4 -4 -3 -3 -4 -4 -3 -3 -1 -3 -3 -4 -5 -5 -5 -6 -6
-12 -11 -9 -8 -8 -7 -7 -6 -6 -7 -6 -5 -5 -5 -6 -6 -5 -6 -6 -5 -4 -4 -4 -4 -3 -3 -3 -4 -4 -4 -4 -4 -4 -3 -2 -2 -2 -3 -4 -4 -5 -6 -5 -4 -6
-20 -19 -16 -14 -13 -12 -10 -9 -8 -7 -9 -7 -6 -5 -5 -6 -6 -7 -6 -6 -5 -4 -4 -4 -3 -3 -3 -4 -4 -4 -4 -4 -3 -4 -3 -2 -2 -3 -4 -5 -6 -6 -6 -6 -5
-23 -23 -23 -21 -20 -18 -16 -14 -12 -11 -12 -11 -9 -7 -7 -6 -7 -7 -8 -8 -6 -6 -5 -5 -4 -3 -3 -3 -4 -3 -3 -3 -3 -2 -2 -2 -2 -2 -4 -4 -5 -6 -6 -6 -6
-24 -24 -25 -25 -24 -23 -22 -21 -19 -18 -17 -16 -14 -11 -10 -10 -10 -9 -8 -9 -9 -7 -6 -5 -4 -4 -3 -3 -4 -4 -3 -4 -2 -2 -2 -2 -3 -3 -3 -5 -5 -5 -6 -6 -6
-25 -25 -25 -26 -26 -26 -26 -25 -25 -24 -23 -22 -20 -17 -15 -13 -12 -12 -10 -11 -11 -10 -9 -6 -5 -5 -4 -4 -4 -4 -3 -2 -2 -3 -3 -3 -3 -3 -4 -5 -6 -6 -6 -7 -6
-26 -26 -25 -26 -26 -26 -26 -26 -25 -24 -25 -24 -23 -22 -20 -18 -17 -15 -13 -12 -11 -11 -11 -9 -7 -7 -5 -6 -6 -5 -3 -3 -2 -3 -4 -3 -3 -4 -5 -4 -5 -4 -5 -7 -7
Height
5887 5886 5884 5883 5882 5881 5879 5878 5877 5875 5874 5873 5872 5872 5873 5873 5873 5872 5871 5871 5870 5870 5874 5878 5880 5882 5884 5885 5886 5884 5883 5884 5890 5889 5886 5887 5887 5887 5887 5888 5888 5889 5891 5893 5893
5886 5885 5883 5882 5881 5880 5878 5877 5875 5874 5873 5872 5871 5870 5870 5870 5870 5869 5870 5869 5870 5870 5873 5877 5878 5880 5884 5885 5884 5882 5883 5885 5886 5890 5887 5888 5888 5887 5888 5887 5889 5889 5890 5891 5893
5884 5882 5881 5880 5879 5877 5876 5875 5874 5872 5872 5871 5870 5869 5867 5867 5868 5867 5867 5867 5869 5869 5869 5872 5875 5878 5883 5884 5885 5884 5883 5885 5886 5889 5891 5889 5890 5889 5886 5887 5888 5889 5890 5890 5891
5880 5880 5878 5877 5876 5875 5874 5873 5872 5872 5871 5870 5869 5868 5866 5865 5866 5865 5865 5866 5866 5867 5867 5870 5874 5877 5883 5884 5884 5886 5886 5885 5883 5886 5889 5888 5890 5891 5889 5888 5888 5889 5890 5889 5889
5876 5876 5875 5874 5873 5872 5871 5870 5870 5870 5869 5868 5868 5867 5865 5864 5863 5862 5863 5863 5864 5866 5866 5869 5873 5875 5882 5881 5883 5887 5887 5885 5883 5884 5887 5887 5889 5893 5890 5890 5890 5889 5888 5889 5889
5873 5872 5871 5870 5869 5869 5867 5866 5866 5867 5867 5866 5866 5865 5864 5863 5861 5860 5860 5860 5862 5864 5865 5867 5871 5873 5877 5879 5882 5885 5885 5883 5882 5886 5886 5887 5887 5892 5891 5890 5890 5891 5889 5889 5890
5868 5867 5866 5865 5865 5864 5863 5862 5863 5863 5864 5863 5864 5863 5862 5862 5859 5858 5858 5858 5860 5861 5864 5866 5866 5871 5874 5877 5878 5881 5885 5883 5883 5883 5885 5887 5887 5891 5889 5890 5890 5890 5890 5890 5891
5863 5862 5860 5860 5859 5859 5857 5858 5858 5858 5859 5859 5860 5860 5857 5859 5857 5856 5856 5856 5856 5858 5861 5862 5862 5867 5871 5874 5877 5879 5881 5885 5883 5883 5886 5886 5887 5890 5887 5889 5891 5891 5890 5891 5893
5858 5856 5855 5855 5854 5853 5850 5852 5853 5853 5854 5855 5856 5856 5854 5856 5856 5855 5853 5854 5854 5854 5856 5856 5859 5863 5867 5870 5873 5876 5879 5881 5881 5882 5883 5885 5886 5887 5886 5888 5891 5891 5891 5891 5893
5852 5850 5849 5848 5848 5848 5845 5846 5847 5848 5849 5850 5851 5852 5850 5852 5852 5852 5850 5852 5852 5851 5851 5853 5855 5859 5861 5864 5870 5875 5878 5878 5879 5880 5882 5883 5885 5885 5887 5888 5889 5891 5893 5893 5893
5845 5843 5842 5840 5840 5841 5840 5840 5841 5842 5843 5844 5846 5846 5845 5845 5848 5849 5846 5848 5848 5849 5849 5849 5851 5855 5861 5865 5871 5872 5875 5876 5878 5880 5880 5881 5881 5883 5887 5887 5887 5889 5892 5894 5895
5835 5835 5833 5831 5831 5831 5832 5832 5832 5833 5838 5836 5838 5841 5838 5837 5842 5843 5844 5845 5846 5846 5846 5847 5847 5853 5856 5860 5865 5868 5871 5872 5874 5877 5877 5877 5877 5878 5883 5886 5886 5886 5889 5894 5896
5824 5824 5824 5822 5821 5821 5821 5822 5822 5823 5825 5834 5830 5833 5832 5830 5837 5836 5839 5840 5841 5841 5843 5845 5848 5848 5850 5853 5858 5864 5867 5870 5874 5870 5871 5873 5873 5877 5880 5882 5883 5885 5885 5889 5894
5811 5811 5811 5812 5811 5810 5811 5811 5811 5812 5812 5824 5822 5823 5823 5825 5829 5829 5833 5834 5835 5838 5838 5840 5843 5843 5845 5846 5852 5858 5866 5867 5869 5866 5866 5869 5869 5870 5877 5879 5880 5883 5883 5887 5890
5796 5795 5796 5797 5798 5797 5799 5800 5801 5802 5801 5808 5811 5812 5814 5816 5821 5824 5824 5824 5828 5832 5833 5840 5840 5841 5842 5847 5847 5856 5858 5862 5865 5864 5863 5862 5863 5868 5868 5873 5877 5882 5881 5885 5889
5778 5777 5777 5779 5781 5785 5784 5785 5788 5791 5786 5792 5795 5799 5805 5807 5809 5813 5814 5817 5819 5819 5824 5830 5831 5832 5838 5840 5843 5850 5851 5854 5857 5858 5849 5858 5859 5863 5864 5872 5876 5882 5882 5884 5888
5759 5759 5756 5757 5764 5766 5768 5768 5771 5773 5776 5779 5779 5787 5791 5797 5799 5801 5805 5808 5811 5813 5818 5824 5824 5827 5830 5834 5837 5837 5841 5841 5842 5841 5840 5855 5852 5860 5863 5867 5873 5876 5881 5885 5886
5739 5738 5734 5737 5743 5745 5746 5750 5751 5757 5759 5764 5765 5771 5777 5782 5787 5790 5793 5797 5800 5803 5809 5812 5815 5820 5827 5830 5834 5832 5833 5830 5830 5832 5839 5846 5842 5857 5866 5868 5870 5872 5878 5882 5885
5715 5713 5711 5718 5718 5722 5724 5728 5735 5736 5739 5747 5752 5753 5759 5768 5772 5775 5780 5786 5792 5795 5801 5803 5806 5814 5816 5821 5824 5830 5820 5833 5831 5831 5834 5833 5841 5847 5858 5862 5865 5866 5870 5877 5882
5686 5683 5685 5689 5692 5694 5698 5705 5710 5710 5717 5723 5732 5736 5740 5747 5755 5760 5765 5769 5775 5779 5786 5790 5794 5803 5808 5809 5811 5813 5824 5821 5819 5821 5821 5824 5831 5837 5849 5858 5863 5863 5866 5871 5876
5653 5652 5655 5658 5662 5666 5671 5677 5684 5686 5692 5700 5707 5716 5721 5724 5733 5743 5748 5751 5759 5765 5770 5776 5779 5792 5794 5792 5801 5807 5809 5812 5815 5817 5817 5818 5823 5835 5841 5852 5856 5859 5862 5866 5869
5619 5618 5620 5621 5629 5633 5639 5646 5653 5658 5659 5668 5679 5688 5698 5704 5710 5721 5732 5732 5740 5747 5752 5760 5765 5775 5780 5786 5793 5796 5801 5804 5803 5807 5814 5815 5816 5828 5835 5841 5850 5855 5857 5861 5863
5595 5590 5584 5587 5593 5598 5604 5613 5620 5630 5636 5640 5649 5660 5670 5680 5691 5694 5708 5716 5725 5731 5735 5745 5751 5762 5771 5774 5773 5775 5785 5795 5800 5804 5802 5808 5808 5824 5828 5833 5837 5843 5849 5852 5858
5579 5574 5570 5566 5567 5570 5574 5582 5590 5598 5605 5614 5622 5634 5646 5655 5665 5674 5682 5696 5705 5712 5718 5726 5734 5744 5756 5765 5768 5769 5776 5783 5790 5790 5795 5797 5805 5818 5824 5827 5830 5834 5841 5844 5849
5568 5565 5560 5557 5553 5554 5555 5560 5565 5572 5578 5588 5596 5605 5617 5630 5640 5648 5661 5670 5682 5692 5700 5708 5716 5724 5735 5745 5752 5756 5764 5771 5775 5782 5784 5799 5800 5810 5819 5822 5824 5828 5832 5835 5838
5561 5558 5556 5554 5550 5548 5547 5552 5555 5559 5562 5570 5574 5582 5590 5601 5612 5626 5636 5650 5661 5671 5682 5688 5698 5706 5716 5727 5737 5741 5749 5760 5765 5771 5777 5783 5789 5801 5811 5813 5815 5818 5823 5826 5829
5556 5553 5551 5551 5548 5547 5544 5545 5548 5551 5555 5560 5560 5567 5573 5579 5589 5603 5615 5628 5641 5652 5662 5673 5678 5687 5696 5708 5715 5727 5735 5748 5753 5757 5766 5770 5783 5793 5801 5804 5807 5810 5812 5817 5822
Wind_Speed
7 7 7 8 8 9 10 9 8 8 8 9 7 8 13 13 10 10 15 9 9 15 18 13 11 8 10 7 0 1 9 9 15 17 17 16 16 14 11 5 5 7 6 4 11
8 8 8 8 8 7 6 7 8 7 5 6 8 8 9 13 14 16 7 10 10 11 16 17 15 12 8 8 3 12 9 10 8 14 20 22 17 13 10 7 4 5 2 7 8
10 9 9 8 7 8 8 7 6 7 6 5 4 7 10 9 16 18 14 14 12 14 17 19 17 13 8 11 8 4 8 10 3 13 13 20 20 15 16 10 7 6 3 5 7
12 11 9 8 8 8 8 6 5 5 5 4 3 4 8 10 10 19 18 17 13 15 15 11 13 11 8 16 9 5 4 16 13 11 11 16 19 17 13 9 9 5 4 2 6
15 15 14 13 11 10 10 8 6 4 4 3 2 3 7 7 8 12 20 20 16 13 14 10 10 13 10 19 16 11 14 6 9 3 14 14 15 14 14 12 11 9 4 2 5
17 18 18 19 17 15 14 13 11 8 6 5 2 3 6 5 9 9 14 22 20 16 16 13 10 14 16 24 20 21 18 15 11 8 9 17 18 14 14 14 15 10 6 7 7
21 21 21 21 20 19 19 17 15 13 12 11 7 6 8 2 7 10 7 14 21 19 16 16 20 17 16 22 19 18 13 12 12 10 5 9 19 15 15 14 15 11 8 6 8
21 22 23 21 21 22 22 19 18 17 16 13 13 12 13 6 11 10 10 10 18 21 20 21 24 22 19 23 22 15 13 13 8 8 11 5 5 11 15 15 13 8 5 1 8
25 24 25 23 22 22 26 22 21 21 19 16 15 15 19 11 11 9 12 11 14 20 25 26 26 22 23 22 27 18 14 21 18 13 9 9 6 8 15 14 9 3 6 2 4
29 29 28 27 25 24 27 25 23 22 21 20 18 19 21 18 15 14 17 9 14 18 24 28 27 24 24 22 21 16 14 21 18 15 11 8 3 4 6 7 4 4 6 5 6
35 33 32 31 29 27 30 29 27 27 23 24 21 21 22 22 20 19 22 16 15 15 16 22 27 25 20 19 18 23 21 20 19 19 16 13 7 1 5 6 7 5 7 8 9
40 39 39 38 37 34 32 33 32 30 24 27 27 23 27 28 22 21 24 20 17 13 18 16 12 21 26 25 24 23 23 23 24 20 19 17 10 7 4 6 6 6 7 7 8
44 42 41 43 42 41 40 38 38 39 36 24 29 28 30 34 22 25 23 24 23 23 18 16 12 18 23 28 27 25 24 24 22 26 24 23 23 12 3 12 10 10 10 6 7
48 46 45 44 46 45 44 45 43 42 43 31 34 33 33 31 28 27 22 23 25 24 22 21 19 20 22 27 28 26 23 30 29 33 33 28 26 21 13 10 13 16 14 9 7
53 54 52 49 49 49 48 47 48 48 47 40 38 37 36 35 31 28 28 31 27 24 29 18 21 22 21 13 26 21 31 35 34 38 40 38 33 18 18 20 14 17 17 14 12
57 56 58 57 55 53 54 53 50 50 54 47 44 42 36 39 37 33 35 33 33 36 32 27 28 29 22 22 19 22 32 38 44 43 51 40 38 26 18 15 16 9 10 14 12
60 61 61 61 59 59 57 59 58 55 54 54 54 49 45 40 39 39 41 41 39 36 31 27 30 30 29 26 25 29 38 43 48 53 47 37 40 21 21 20 16 13 9 15 12
60 61 62 66 64 63 63 64 64 61 59 57 58 54 49 47 48 45 45 46 46 43 36 36 37 33 28 27 26 28 38 45 46 49 42 39 37 12 23 21 23 15 16 16 16
65 66 68 66 70 68 68 68 67 67 67 61 59 60 57 54 51 51 51 50 47 42 38 38 39 32 32 32 33 29 41 34 42 47 45 44 32 31 29 31 34 24 21 19 12
74 76 75 71 68 71 74 72 71 74 71 70 66 65 64 62 60 58 56 56 54 53 50 49 47 38 35 39 40 41 31 39 45 46 46 37 29 29 30 30 33 28 24 19 16
77 76 75 74 72 72 71 71 71 74 76 75 73 71 70 70 67 64 64 63 59 56 56 55 55 45 44 50 44 43 44 42 41 42 43 41 27 25 25 28 31 27 25 21 20
72 71 75 75 72 70 71 71 73 74 80 83 82 79 77 76 76 72 68 70 66 63 61 59 58 56 53 49 44 46 46 46 50 45 38 37 35 28 30 28 33 34 34 29 25
50 50 59 60 58 60 65 68 71 73 76 84 87 87 86 83 79 79 78 74 72 70 68 64 63 60 58 57 57 58 55 50 47 45 46 42 39 24 23 28 36 37 32 31 29
42 39 39 40 36 42 48 56 65 71 74 79 85 88 88 89 86 84 83 79 79 77 75 72 70 67 63 62 57 58 56 54 51 52 47 44 41 25 21 26 32 43 40 35 33
34 30 28 22 24 27 36 46 54 59 63 67 79 85 88 89 87 89 89 85 83 82 82 80 77 74 71 67 66 63 60 56 55 52 51 40 43 33 22 26 31 36 42 46 43
26 22 18 13 14 18 24 23 25 38 44 53 60 75 83 87 89 88 92 91 88 86 85 85 82 80 78 74 69 70 68 64 59 55 53 51 48 39 27 31 35 38 43 44 44
22 19 17 14 13 13 17 23 28 26 34 23 41 54 59 74 81 88 91 95 92 89 88 87 88 85 83 78 76 73 70 68 66 61 56 56 48 42 37 37 41 40 44 49 47
Wind_Direction
306 297 301 291 294 303 307 306 311 328 309 281 281 253 233 233 237 229 221 238 264 254 242 240 253 215 196 177 57 20 102 126 123 90 83 74 67 65 55 57 173 154 169 190 163
303 302 305 305 303 309 311 309 298 297 334 315 279 275 257 233 226 242 237 240 239 253 255 241 241 237 202 163 134 133 115 114 73 73 90 70 59 75 62 56 40 15 267 214 225
284 291 297 298 296 291 292 293 305 294 293 307 326 271 269 249 228 236 237 240 223 232 238 228 232 241 204 169 157 160 124 101 65 73 74 66 49 45 37 52 39 350 308 239 227
273 270 277 281 284 281 286 285 280 287 298 305 289 293 280 270 250 232 238 244 237 224 241 243 231 246 174 180 180 201 184 157 90 73 78 59 61 40 46 16 38 1 314 233 222
264 260 259 262 267 270 267 264 267 278 283 282 280 295 285 306 265 246 233 240 244 236 236 228 210 228 193 183 173 182 187 157 114 21 74 79 62 43 53 23 36 355 332 225 198
259 258 260 259 259 264 262 257 260 259 248 245 255 277 297 301 293 271 242 236 239 242 235 231 205 216 206 196 179 195 214 201 149 208 86 76 81 71 65 39 27 30 323 156 171
267 266 263 261 262 264 263 256 256 257 248 243 237 256 274 329 298 287 258 245 245 240 239 224 223 209 211 207 204 190 233 211 290 150 246 85 72 65 68 43 14 35 16 136 165
270 268 266 262 263 266 265 260 256 253 249 244 241 252 265 250 263 283 282 238 237 239 233 229 226 219 202 204 210 208 209 239 230 229 209 201 15 42 64 46 23 7 57 359 171
272 271 269 267 262 262 265 265 263 260 256 251 245 249 262 239 257 271 266 267 247 238 236 231 237 227 217 208 209 217 204 226 259 250 249 280 302 31 63 58 29 0 85 121 190
269 268 268 268 267 264 265 267 264 261 263 258 249 247 253 254 243 248 254 250 254 243 240 240 241 243 235 224 214 208 203 235 247 262 212 199 205 35 28 57 77 57 100 136 175
265 266 266 264 263 260 260 264 264 258 257 258 257 257 251 253 247 236 251 245 253 261 260 248 246 248 255 246 218 217 211 226 240 234 241 232 182 34 22 157 106 86 127 156 182
267 265 264 263 263 260 256 259 260 256 242 256 257 249 257 249 248 244 243 248 249 251 250 256 266 243 237 233 229 225 222 227 237 241 247 246 235 208 271 198 158 150 129 170 166
269 268 265 264 261 261 259 256 256 258 254 242 259 249 246 251 240 246 241 240 242 241 242 254 258 241 236 238 230 229 229 228 238 238 249 254 247 206 174 200 198 175 148 158 178
267 264 264 264 263 260 260 258 255 255 257 245 240 252 256 248 243 248 243 243 239 240 242 234 240 239 229 224 228 229 232 227 230 235 247 253 255 243 240 205 203 189 155 161 177
268 266 261 259 259 261 259 258 257 254 257 257 245 245 244 250 245 239 241 240 241 237 240 248 245 249 250 246 233 213 223 227 225 231 243 249 251 244 245 200 198 187 165 162 173
270 268 265 261 259 255 257 257 255 257 252 253 249 248 244 242 242 233 234 232 234 238 239 234 229 237 234 224 224 214 213 219 222 227 240 240 247 227 223 152 154 187 175 181 185
268 266 266 263 260 257 255 254 253 251 252 252 251 246 248 243 241 241 237 235 238 243 247 237 236 238 234 233 222 208 209 213 221 224 244 239 247 214 217 205 202 179 208 207 193
267 265 264 262 262 259 257 253 251 251 248 249 253 251 244 244 241 239 239 238 233 234 230 234 234 237 243 242 243 239 219 229 229 233 245 240 241 192 208 224 213 171 165 198 226
269 265 264 263 258 257 256 253 252 251 251 247 248 251 249 243 242 241 238 240 241 238 237 239 237 234 233 231 236 238 236 236 238 241 244 252 252 240 214 210 206 182 178 174 174
269 267 265 262 258 254 252 251 250 250 248 248 245 246 247 245 239 240 241 239 237 237 234 234 235 228 229 233 229 230 235 231 233 238 246 251 252 240 219 217 215 202 195 177 168
279 274 268 263 257 254 250 248 245 245 246 243 243 241 242 244 242 239 240 241 238 238 239 237 233 222 224 231 230 229 231 233 237 239 247 254 253 251 243 216 223 222 215 196 184
283 278 271 267 264 257 252 247 243 238 239 240 239 238 237 237 240 238 235 238 240 239 238 237 237 229 226 227 230 234 231 238 241 243 246 255 253 251 246 244 226 230 233 229 202
298 293 283 274 270 262 254 246 241 239 235 237 236 235 234 232 231 235 234 234 236 238 240 238 238 236 228 226 224 227 231 233 240 242 244 246 252 239 243 235 239 235 223 231 225
302 303 301 294 275 258 244 238 235 234 231 230 233 234 231 229 227 228 230 227 231 233 236 237 238 236 233 230 229 233 234 235 236 243 247 245 253 242 223 230 230 230 230 230 227
303 302 306 301 284 251 237 233 233 232 232 228 226 229 230 227 224 224 225 227 225 228 230 233 234 236 235 233 229 230 231 232 239 243 245 249 250 250 228 228 233 229 229 234 241
307 298 301 298 296 270 253 223 237 240 238 229 231 227 228 229 225 221 222 222 222 223 224 229 231 233 234 234 233 231 232 237 236 239 245 248 248 247 229 221 225 228 227 230 239
311 302 294 274 290 297 277 257 229 219 240 237 244 234 233 231 230 225 221 220 219 218 221 224 229 229 231 231 232 230 233 236 237 234 237 241 246 249 239 229 226 234 233 227 234